Regional Weather Roundup
Issued by NWS

Home | Current Version | Previous Version | Text Only | Print | Product List | Glossary Off
Versions: 1 2 3 4 5 6 7 8 9 10 11 12 13 14 15 16 17 18 19 20 21 22 23 24 25 26 27 28 29 30 31 32 33 34 35 36 37 38 39 40 41 42 43 44 45 46 47 48 49 50

943
ASUS43 KDTX 061001
RWRMI
MICHIGAN HOURLY REGIONAL WEATHER ROUNDUP
NATIONAL WEATHER SERVICE DETROIT/PONTIAC MI
600 AM EDT FRI MAY 06 2016

NOTE: "FAIR" INDICATES FEW OR NO CLOUDS BELOW 12,000 FEET WITH NO
SIGNIFICANT WEATHER AND/OR OBSTRUCTION TO VISIBILITY.

MIZ047>049-052>055-059>063-066>070-074>076-081>083-061100-
SOUTHEAST LOWER MICHIGAN

CITY           SKY/WX    TMP DP  RH WIND       PRES   REMARKS
ADRIAN         CLEAR     47  41  80 N5        29.93R
ALMA           CLEAR     38  38 100 CALM      29.94S FOG
BAD AXE        CLEAR     34  33  96 CALM      29.92S FOG
CARO           CLEAR     36  35  98 CALM      29.92S FOG
DETROIT CITY   CLEAR     48  33  56 NW5       29.92R
DETROIT        PTCLDY    47  35  63 CALM      29.92S
FLINT          CLEAR     42  37  82 CALM      29.94S
GROSSE ILE     CLEAR     45  36  70 N5        29.90S
HILLSDALE      PTCLDY    42  39  87 W3        29.93S
HOWELL         CLEAR     42  38  88 CALM      29.92S

CITY           SKY/WX    TMP DP  RH WIND       PRES   REMARKS
JACKSON        PTCLDY    41  40  96 SW5       29.93S
LAMBERTVILLE   CLEAR     43  40  90 CALM      29.92S
LANSING        CLEAR     42  40  92 W3        29.94S
LAPEER         FAIR      36  35  97 CALM      29.93R
MASON          CLEAR     41  40  95 CALM      29.93S
MONROE         CLEAR     40  37  87 N7        29.91S
MT. CLEMENS    CLEAR     45  37  73 N5        29.90S
PONTIAC        PTCLDY    44  36  73 CALM      29.91S
PORT HOPE        N/A     39  37  92 W3        29.90S
PORT HURON     CLEAR     37  37 100 CALM      29.92S
TRI CITIES     CLEAR     43  38  82 W5        29.93S
MIDLAND        FAIR      37  37 100 CALM      29.92S
TROY           CLEAR     47  36  64 CALM      29.93S
SAGINAW HB     CLEAR     39  37  93 CALM      29.92S
$$
MIZ043>046-050>051-056>058-064>065-071>073-077>080-061100-
SOUTHWEST LOWER MICHIGAN

CITY           SKY/WX    TMP DP  RH WIND       PRES   REMARKS
BATTLE CREEK   PTCLDY    42  35  76 W6        29.95S
BENTON HARBOR  CLEAR     35  33  92 CALM      29.97S
BIG RAPIDS     CLEAR     35  32  89 CALM      29.94S
COLDWATER      CLEAR     39  37  92 CALM      29.94S
FREMONT        FAIR      36  36 100 CALM      29.95S
HOLLAND        PTCLDY   N/A N/A N/A W3        29.97R
GRAND RAPIDS   PTCLDY    42  36  79 W7        29.95S
IONIA          FAIR      44  38  80 W3        29.94R
KALAMAZOO      CLOUDY    41  34  76 CALM      29.96R
LUDINGTON      MOCLDY    38  37  97 CALM      29.95S
MARSHALL       CLEAR     40  37  88 CALM      29.94S
MOUNT PLEASANT CLEAR     40  39  97 CALM      29.93S
MUSKEGON       PTCLDY    38  34  85 CALM      29.96S
$$
MIZ016>042-061100-
NORTHERN LOWER MICHIGAN

CITY           SKY/WX    TMP DP  RH WIND       PRES   REMARKS
ALPENA         CLEAR     37  34  89 CALM      29.92S
BEAVER ISLAND  CLEAR     34  32  94 CALM      29.90F
BELLAIRE       CLEAR     34  33  96 CALM      29.93S
CADILLAC       CLEAR     33  32  97 CALM      29.93S
CHARLEVOIX     CLEAR     39  36  91 SE3       29.94S
FRANKFORT      CLEAR     36  35  95 CALM      29.93S
GAYLORD        CLEAR     38  33  82 CALM      29.92S
GRAYLING         N/A     33  32  98 CALM      29.93F FOG
HARBOR SPRINGS CLEAR     37  34  89 CALM      29.91S
HOUGHTON LAKE  FOG       36  35  96 E3        29.93S VSB 3/4
MANISTEE       CLOUDY    36  30  80 E3        29.95S
OSCODA         PTCLDY    34  31  88 SW3       29.92R
PELLSTON       CLEAR     32  30  92 CALM      29.91F
ROGERS CITY    CLEAR     38  34  84 W5        29.92S WCI  35
TRAVERSE CITY  CLEAR     38  34  85 CALM      29.91F
$$
MIZ007>008-015-061100-
EASTERN UPPER MICHIGAN

CITY           SKY/WX    TMP DP  RH WIND       PRES   REMARKS
KINROSS          N/A     43  36  75 S5        29.89F
MACKINAC ISLAN CLEAR     41  34  76 W5        29.91R
NEWBERRY       CLEAR     40  37  86 S6        29.87F
S. S. MARIE    CLEAR     39  34  82 CALM      29.90S
MUNISING         N/A     47  37  68 S12       29.83F
$$
MIZ004>006-011>014-085-061100-
CENTRAL UPPER MICHIGAN

CITY           SKY/WX    TMP DP  RH WIND       PRES   REMARKS
MANISTIQUE     CLEAR     40  38  91 S9        29.87F WCI  35
ESCANABA       CLEAR     45  39  81 CALM      29.86F
SAWYER-GWINN   CLEAR     41  36  82 S6        29.83R
$$
MIZ001>003-009>011-084-061100-
WESTERN UPPER MICHIGAN

CITY           SKY/WX    TMP DP  RH WIND       PRES   REMARKS
IRON MOUNTAIN  CLEAR     42  38  85 CALM      29.83F
HOUGHTON       CLOUDY    46  35  65 E5        29.76S
COPPER HARBOR    N/A     52  36  54 SW8       29.75
IRONWOOD       CLEAR     59  39  47 SW7       29.76F
$$

ABBREVIATIONS USED IN REMARKS
   TC - TEMPERATURE IN CELSIUS
  WCI - WIND CHILL INDEX
   HX - HEAT INDEX
  VSB - VISIBILITY





USA.gov is the U.S. government's official web portal to all federal, state and local government web resources and services.